Location: Unspecified
(37.1700°N, 0.0000°E)
Time: 20:08:54
(UTC+00:00)

POSAT 1 - Visible Passes

Search period start: 04 April 2026 00:00
Search period end: 14 April 2026 00:00
Orbit: 779 x 792 km, 98.7° (Epoch: 29 March)

Date Brightness Start Highest point End Pass type
(mag) Time Alt. Az. Time Alt. Az. Time Alt. Az.
4 Apr 10.0 20:35:00 24° NE 20:35:00 24° NE 20:37:55 10° NNE visible
4 Apr 10.9 22:15:37 20° NW 22:15:37 20° NW 22:17:30 10° NNW visible
5 Apr 10.5 20:03:38 14° NE 20:03:38 14° NE 20:05:43 10° NNE visible
5 Apr 10.1 21:44:16 32° NNW 21:44:16 32° NNW 21:47:01 10° NNW visible
6 Apr 9.6 21:12:53 37° N 21:12:53 37° N 21:16:07 10° N visible
7 Apr 9.8 20:41:31 27° NE 20:41:31 27° NE 20:44:47 10° N visible
7 Apr 10.9 22:22:08 19° NW 22:22:08 19° NW 22:24:04 10° NW visible
8 Apr 10.3 20:10:09 16° ENE 20:10:09 16° ENE 20:12:50 10° NNE visible
8 Apr 10.1 21:50:46 33° NW 21:50:46 33° NW 21:53:42 10° NNW visible
9 Apr 9.5 21:19:24 42° N 21:19:24 42° N 21:22:52 10° N visible
10 Apr 9.6 20:48:02 32° NE 20:48:02 32° NE 20:51:38 10° N visible
10 Apr 10.9 22:28:40 18° WNW 22:28:40 18° WNW 22:30:34 10° NW visible
11 Apr 10.2 20:16:40 19° ENE 20:16:40 19° ENE 20:19:52 10° NNE visible
11 Apr 10.1 21:57:17 33° NW 21:57:17 33° NW 22:00:21 10° NNW visible
12 Apr 9.3 21:25:56 47° N 21:25:56 47° N 21:29:36 10° N visible
13 Apr 9.4 20:54:34 37° NE 20:54:34 37° NE 20:58:27 10° N visible
13 Apr 10.9 22:35:11 17° WNW 22:35:11 17° WNW 22:37:02 10° NW visible
